Volver al catálogo

QIANFAN-105

ActivoComunicacionesPO
NORAD 66047·PAYLOAD·🇨🇳 China

Lanzado Oct 17, 2025 desde Taiyuan Satellite Launch Center

Loading…

Próximos Pases (próximas 24 horas)

TLE

ActualizadoSource: Space-Track

Época: Sep 14, 2026, 08:47 UTC

1 66047U 25233Q   26257.36601095  .00000063  00000-0  79775-4 0  9998
2 66047  89.0071  33.9449 0001860  97.1136 263.0226 13.50988347 45383

Sigue QIANFAN-105 en tiempo real con AllMySat

Download on the App Store